FW2014 Weather Reports


time (UTC)temp
C
wind
direction
speed
KPH
gust
KPH
rain 1hr
cm
rain 24hr
cm
rain mn
cm
humidity
%
barometer
mb
20260502181529 15 214 3.2 9.7 0.00 0.00 0.00 55 1009.8
20260502163059 18 162 9.7 24.1 0.00 0.00 0.00 48 1010.3
20260502161555 18 204 12.9 22.5 0.00 0.00 0.00 48 1010.4
20260502151532 19 216 9.7 20.9 0.00 0.00 0.00 49 1010.7
20260502123043 19 201 9.7 29.0 0.00 0.00 0.00 55 1012.5
20260502121545 20 198 12.9 20.9 0.00 0.00 0.00 52 1012.6
20260502114529 19 186 12.9 29.0 0.00 0.00 0.00 53 1012.9
20260502113025 19 187 11.3 25.7 0.00 0.00 0.00 53 1013.2
20260502111519 18 174 9.7 27.4 0.00 0.00 0.00 55 1013.2
20260502110019 18 132 9.7 22.5 0.00 0.00 0.00 56 1013.4
20260502104533 18 150 11.3 22.5 0.00 0.00 0.00 57 1013.5
20260502103006 17 184 11.3 20.9 0.00 0.00 0.00 58 1013.6
20260502101501 17 174 9.7 24.1 0.00 0.00 0.00 59 1013.7
20260502100123 17 169 12.9 24.1 0.00 0.00 0.00 59 1013.8
20260502071507 15 169 4.8 14.5 0.00 0.00 0.00 67 1014.9
20260502064608 13 134 3.2 11.3 0.00 0.00 0.00 68 1015.2
20260502063054 13 164 0.0 6.4 0.00 0.00 0.00 66 1015.3
20260502061550 12 211 0.0 1.6 0.00 0.00 0.00 61 1015.4
20260502060044 12 173 0.0 0.0 0.00 0.00 0.00 17 1015.6
20260502054542 10 173 0.0 0.0 0.00 0.00 0.00 1 1015.7
20260502053036 7 173 0.0 0.0 0.00 0.00 0.00 1 1015.8
20260502051548 6 173 0.0 0.0 0.00 0.00 0.00 1 1016.1
20260502050033 5 173 0.0 0.0 0.00 0.00 0.00 1 1016.3
20260502044522 5 173 0.0 0.0 0.00 0.00 0.00 1 1016.4
20260502043018 3 173 0.0 0.0 0.00 0.00 0.00 1 1016.6
20260502041514 2 173 0.0 0.0 0.00 0.00 0.00 1 1016.8
20260502040010 2 172 0.0 3.2 0.00 0.00 0.00 1 1017.1
20260502034505 2 175 0.0 0.0 0.00 0.00 0.00 1 1017.2
20260502033001 2 175 0.0 0.0 0.00 0.00 0.00 1 1017.4
20260502031610 2 175 0.0 0.0 0.00 0.00 0.00 1 1017.6
20260502030052 2 175 0.0 0.0 0.00 0.00 0.00 1 1017.9
20260502024554 3 175 0.0 0.0 0.00 0.00 0.00 1 1018.1
20260502023043 3 175 0.0 0.0 0.00 0.00 0.00 1 1018.3
20260502021538 3 175 0.0 0.0 0.00 0.00 0.00 1 1018.5
20260502020036 3 175 0.0 0.0 0.00 0.00 0.00 1 1018.7
20260502014532 3 175 0.0 0.0 0.00 0.00 0.00 1 1018.9
20260502013026 3 175 0.0 0.0 0.00 0.00 0.00 1 1019.1
20260502011528 3 174 0.0 0.0 0.00 0.00 0.00 1 1019.2
20260502010018 3 172 0.0 0.0 0.00 0.00 0.00 1 1019.3
20260502004513 3 172 0.0 0.0 0.00 0.00 0.00 1 1019.4
20260502003016 3 172 0.0 0.0 0.00 0.00 0.00 1 1019.7
20260502001503 4 172 0.0 0.0 0.00 0.00 0.00 2 1019.8
20260501234559 4 172 0.0 0.0 0.00 0.00 0.00 11 1020.0
20260501233054 4 172 0.0 0.0 0.00 0.00 0.00 12 1020.2
20260501231556 5 172 0.0 0.0 0.00 0.00 0.00 23 1020.4
20260501230047 5 171 0.0 0.0 0.00 0.00 0.00 25 1020.5
20260501224541 5 171 0.0 0.0 0.00 0.00 0.00 33 1020.6
20260501223037 5 171 0.0 0.0 0.00 0.00 0.00 44 1020.7
20260501221534 5 171 0.0 0.0 0.00 0.00 0.00 53 1020.7
20260501220029 6 172 0.0 1.6 0.00 0.00 0.00 61 1020.8
20260501214535 7 171 0.0 0.0 0.00 0.00 0.00 66 1021.0
20260501213021 7 170 0.0 0.0 0.00 0.00 0.00 68 1021.1
20260501211520 8 170 0.0 0.0 0.00 0.00 0.00 69 1021.2
20260501210012 9 169 0.0 0.0 0.00 0.00 0.00 69 1021.2
20260501204509 11 194 0.0 9.7 0.00 0.00 0.00 67 1021.3
20260501203003 11 178 0.0 4.8 0.00 0.00 0.00 66 1021.4
20260501201559 11 193 3.2 8.0 0.00 0.00 0.00 66 1021.6
20260501200054 11 202 0.0 9.7 0.00 0.00 0.00 65 1021.7
20260501194559 11 177 4.8 11.3 0.00 0.00 0.00 65 1021.8
20260501193045 11 167 0.0 6.4 0.00 0.00 0.00 63 1021.8
20260501191540 12 205 0.0 6.4 0.00 0.00 0.00 61 1022.1
20260501190037 12 195 4.8 11.3 0.00 0.00 0.00 61 1022.2
20260501184532 12 231 8.0 17.7 0.00 0.00 0.00 59 1022.4
20260501183028 13 208 9.7 20.9 0.00 0.00 0.00 60 1022.4